This is the latest recevied weather packets stored in our database for station/object EA1JAV-10. If no packets are shown the sender has not sent any weather packets the latest 10 day(s).
| Time | Temp. | Humidity | Pressure | Rain* | Wind** | Luminosity | Snow |
|---|---|---|---|---|---|---|---|
| 1788525416 | 25.56° C | 43% | 1007.2 hPa | - | - | - | - |
| 1788523616 | 25° C | 44% | 1007.1 hPa | - | - | - | - |
| 1788521816 | 24.44° C | 44% | 1006.9 hPa | - | - | - | - |
| 1788520015 | 23.89° C | 44% | 1007 hPa | - | - | - | - |
| 1788518215 | 23.33° C | 44% | 1006.7 hPa | - | - | - | - |
| 1788516415 | 22.78° C | 45% | 1006.9 hPa | - | - | - | - |
| 1788514615 | 22.22° C | 44% | 1006.5 hPa | - | - | - | - |
| 1788512815 | 21.67° C | 45% | 1006.4 hPa | - | - | - | - |
| 1788511015 | 21.67° C | 45% | 1006.5 hPa | - | - | - | - |
| 1788509215 | 21.67° C | 44% | 1006.5 hPa | - | - | - | - |
| 1788507415 | 21.67° C | 43% | 1006.5 hPa | - | - | - | - |
| 1788505615 | 21.67° C | 43% | 1006.4 hPa | - | - | - | - |
| 1788503815 | 21.67° C | 43% | 1005.9 hPa | - | - | - | - |
| 1788502015 | 21.67° C | 43% | 1005.4 hPa | - | - | - | - |
| 1788500215 | 21.67° C | 43% | 1005.2 hPa | - | - | - | - |
| 1788498414 | 21.67° C | 42% | 1004.9 hPa | - | - | - | - |
| 1788496614 | 21.67° C | 42% | 1004.7 hPa | - | - | - | - |
| 1788494814 | 21.67° C | 42% | 1005.1 hPa | - | - | - | - |
| 1788493014 | 22.22° C | 41% | 1005.3 hPa | - | - | - | - |
| 1788491214 | 22.78° C | 41% | 1005.5 hPa | - | - | - | - |
| 1788489414 | 22.78° C | 40% | 1005.8 hPa | - | - | - | - |
| 1788487614 | 22.78° C | 40% | 1006 hPa | - | - | - | - |
| 1788485814 | 22.78° C | 40% | 1006.4 hPa | - | - | - | - |
| 1788484014 | 23.33° C | 39% | 1006.5 hPa | - | - | - | - |
| 1788482214 | 23.33° C | 39% | 1006.8 hPa | - | - | - | - |
* Rain since midnight (hover to see other rain measurements)
** Current wind speed in m/s (hover to see current wind gust speed)